Simultaneous Nadir Overpasses (SNOs) Predictions

Prediction of SNOs between AQUA and METOP-C Satellite Orbit:

Table of predicted SNOs for the next 14.0 days since TLE Epoch: 1/4/2019
Index Date (AQUA) Time (AQUA) Lat,Lon (AQUA) SZA (AQUA ) Date (METOP-C) Time (METOP-C) Lat,Lon (METOP-C) SZA (METOP-C ) Distance(km) Time Diff (sec)
1 01/06/2019 01:36:30 73.78, 150.17 96.35 01/06/2019 01:35:38 73.79, 150.18 96.36 0.32 52
2 01/06/2019 02:25:56 -73.84, -42.30 83.60 01/06/2019 02:26:19 -73.86, -42.33 83.58 2.19 23
3 01/06/2019 03:15:39 74.61, 123.54 97.23 01/06/2019 03:16:43 74.60, 126.90 97.11 99.30 64
4 01/08/2019 21:10:46 73.81,-143.45 96.03 01/08/2019 21:10:01 73.79,-143.39 96.02 2.59 45
5 01/08/2019 22:00:12 -73.86, 24.09 83.92 01/08/2019 22:00:42 -73.87, 24.11 83.92 0.97 30
6 01/11/2019 16:45:01 73.79, -76.96 95.61 01/11/2019 16:44:24 73.80, -76.96 95.62 1.08 37
7 01/11/2019 17:34:27 -73.89, 90.47 84.30 01/11/2019 17:35:04 -73.88, 90.55 84.31 2.88 37
8 01/14/2019 12:19:16 73.83, -10.60 95.18 01/14/2019 12:18:46 73.81, -10.53 95.17 2.98 30
9 01/14/2019 13:08:42 -73.87, 156.95 84.78 01/14/2019 13:09:27 -73.89, 157.00 84.77 3.01 45
10 01/17/2019 07:03:51 -73.18,-110.42 86.02 01/17/2019 07:02:44 -73.13,-113.01 85.96 83.49 67
11 01/17/2019 07:53:31 73.82, 55.87 94.65 01/17/2019 07:53:09 73.82, 55.90 94.66 1.07 22
12 01/17/2019 08:42:57 -73.85,-136.57 85.32 01/17/2019 08:43:51 -73.86,-136.68 85.32 3.37 54




NCC Satellite Simultaneous Nadir Overpasses (SNOs) Prediction Service
